Theta_e
299 298 297 296 295 295 294 293 293 292 292 292 292 291 291 291 291 291 291 292 292 292 292 292 292 292 293 293 294 296 297 298 299 298 298 298 298 298 298 298 298 298 299
296 296 295 294 293 292 292 291 291 291 291 291 290 290 290 290 290 290 290 290 291 291 291 291 291 291 291 291 291 292 293 294 295 295 295 294 294 294 295 295 296 296 297
294 294 293 292 292 291 291 291 290 290 290 289 290 290 290 290 289 289 288 288 288 289 289 289 290 289 289 289 290 290 290 290 290 291 291 291 292 292 293 293 293 293 294
293 292 292 291 291 290 290 289 289 290 290 290 289 289 289 288 288 288 287 288 288 288 288 288 288 288 288 288 288 288 289 289 289 289 289 290 291 291 292 292 292 292 293
292 292 291 290 290 289 289 289 289 289 288 288 288 288 287 287 286 286 287 287 287 287 287 286 286 286 286 286 287 287 287 288 288 288 289 289 290 291 291 291 291 291 290
291 290 289 289 289 289 289 288 288 288 287 287 286 286 286 286 286 286 286 286 285 286 285 285 285 285 285 285 286 286 287 287 288 288 288 289 289 289 289 289 289 288 289
290 289 289 289 289 288 287 287 287 286 286 285 285 285 285 285 285 284 285 285 285 285 285 285 284 285 285 285 285 286 286 287 287 287 288 287 287 287 287 287 288 288 288
289 288 288 288 288 287 286 286 286 285 285 284 284 284 284 284 284 284 285 284 284 284 284 284 284 284 285 285 286 287 286 286 286 286 286 286 286 287 287 286 285 286 286
288 288 287 287 286 286 287 286 285 285 284 284 283 283 283 284 283 284 284 284 284 285 285 284 284 284 285 285 286 286 286 285 286 286 285 286 286 286 285 284 284 285 286
287 287 286 286 286 286 285 285 285 284 283 283 283 282 282 282 282 283 284 284 284 285 286 285 285 285 285 285 286 286 285 286 284 285 284 284 284 283 283 283 282 282 284
286 286 285 285 285 285 284 283 283 283 282 282 281 281 281 280 281 281 282 283 284 285 286 285 285 285 285 286 287 285 286 285 284 284 283 283 282 282 282 282 281 281 279
285 285 285 284 284 283 283 283 282 282 282 281 280 280 279 279 280 281 282 283 284 285 284 285 285 285 285 286 285 285 284 284 284 283 282 282 282 281 281 281 280 280 280
284 284 283 283 282 282 282 282 282 281 279 278 277 277 277 279 280 281 282 284 283 284 284 284 284 285 285 284 284 284 284 283 283 283 282 282 281 281 282 282 281 280 280
283 283 282 282 281 281 280 280 280 279 278 276 277 277 278 279 280 282 283 282 282 283 285 285 284 284 284 283 283 282 283 283 283 283 282 282 282 281 281 280 280 281 279
282 282 281 281 280 279 279 278 277 278 276 277 277 278 278 279 281 282 282 281 281 282 284 284 283 282 281 281 281 280 281 281 281 281 282 281 281 280 280 279 279 278 276
281 280 280 280 279 278 277 278 277 278 278 277 277 279 280 281 280 280 280 280 281 283 284 281 280 279 278 278 278 278 278 278 278 279 279 279 279 279 278 278 278 277 276
281 280 279 279 277 276 276 275 275 279 278 278 277 279 278 278 277 279 279 278 280 281 281 279 278 277 276 276 276 275 275 276 276 276 276 276 276 277 276 276 276 276 275
280 279 278 276 276 275 275 274 273 273 273 276 277 276 275 275 276 276 276 277 279 279 278 277 276 275 274 274 274 274 274 274 274 274 274 274 274 274 275 274 274 275 274
279 277 275 275 274 274 274 273 272 272 273 273 274 275 274 274 274 274 275 275 275 275 274 274 274 273 273 273 272 272 272 272 272 272 272 273 273 273 273 273 273 273 273
276 275 274 274 273 273 273 272 271 271 272 272 273 273 273 273 273 272 272 272 272 271 271 271 271 271 271 271 271 270 270 270 270 269 269 270 270 271 271 271 271 271 271
274 274 273 272 272 272 272 271 270 271 271 271 271 271 272 272 271 270 270 270 270 269 269 269 269 269 269 269 269 269 268 268 268 268 268 268 268 268 269 269 269 269 269
274 273 272 272 271 271 270 270 270 270 270 270 270 270 270 270 270 270 269 269 269 269 268 268 267 267 267 267 267 267 267 267 267 267 267 267 267 267 267 267 267 268 268
272 272 271 271 270 269 269 269 269 269 269 269 269 269 269 269 269 269 269 269 268 268 268 267 267 266 266 266 266 266 266 266 266 266 266 266 266 266 266 266 266 266 266
271 270 270 269 269 269 269 268 268 268 268 268 268 268 268 268 268 268 268 268 268 267 266 266 266 266 266 265 265 265 265 265 265 265 265 265 265 265 265 265 265 265 265
269 269 269 269 268 268 268 268 268 267 267 267 267 267 267 267 267 267 267 267 267 267 268 267 266 265 265 265 265 265 265 265 265 265 265 264 264 264 264 264 264 264 264
267 268 268 267 267 267 267 267 267 267 266 266 266 266 266 266 266 266 267 267 267 267 267 266 265 265 265 265 265 265 265 265 265 264 264 264 264 264 263 263 263 263 263
Wind_Speed
27 27 26 23 20 18 17 15 13 11 12 13 15 15 16 18 19 20 21 21 21 25 26 27 28 28 27 29 27 25 24 23 22 48 35 36 36 34 35 34 37 39 41
27 25 24 20 17 16 14 13 12 13 13 14 15 17 19 20 21 23 23 22 24 27 28 28 29 30 30 31 29 25 25 24 25 30 41 37 34 35 36 38 36 36 39
24 23 20 17 15 14 13 12 12 13 14 15 16 19 20 21 22 22 21 22 24 25 26 27 29 29 31 31 30 26 23 23 25 27 38 35 37 33 35 35 38 37 39
21 19 17 14 12 11 10 11 12 13 14 16 18 19 21 22 23 23 24 24 25 26 26 27 28 28 29 30 28 25 25 27 27 26 29 33 31 34 30 29 34 31 35
19 17 15 12 10 9 10 11 12 13 15 16 18 19 21 22 24 23 23 25 26 25 26 26 26 25 23 22 24 27 29 27 27 25 26 28 30 29 27 28 26 32 34
17 15 12 9 7 8 10 11 13 14 16 18 20 21 22 23 24 21 20 23 20 20 21 21 20 21 23 27 27 27 26 29 29 26 27 25 30 28 29 28 29 27 12
16 13 10 8 7 8 9 11 13 15 17 19 20 20 23 24 23 21 19 19 18 18 19 22 24 24 29 31 30 28 28 26 24 29 30 28 31 30 32 34 28 23 27
15 12 9 6 6 7 10 12 14 16 18 19 20 21 22 23 22 19 20 17 18 19 21 23 26 30 30 29 31 27 27 27 27 27 28 32 33 34 30 26 27 26 27
14 10 7 5 4 7 9 11 13 15 17 19 19 21 21 22 20 19 21 20 20 22 22 23 26 28 28 26 30 30 26 27 24 22 22 23 22 20 20 23 20 20 15
13 10 6 3 3 5 8 10 12 14 16 18 20 20 20 20 19 17 20 21 22 23 21 26 24 23 24 25 25 24 25 22 28 24 20 17 16 17 17 17 19 15 10
13 10 6 1 3 5 8 10 12 14 15 17 19 20 18 16 18 17 17 19 23 24 21 25 23 26 25 21 18 19 19 21 22 18 17 15 16 17 18 19 18 17 17
14 9 4 0 2 4 6 8 10 12 15 18 20 21 18 19 21 19 18 17 19 22 27 22 23 23 19 18 15 17 15 15 17 17 18 19 20 19 18 16 16 15 14
12 8 5 2 0 3 6 9 11 12 15 17 18 17 18 21 21 20 20 19 19 22 23 21 19 15 14 12 12 14 13 16 16 17 16 15 15 14 14 17 14 14 16
12 9 5 3 1 3 6 7 9 11 13 14 17 17 18 20 22 21 20 19 22 22 18 15 12 10 9 9 11 13 14 13 14 12 12 13 14 16 17 17 16 12 13
12 8 5 2 1 3 5 6 7 7 9 14 16 17 20 20 21 19 20 20 20 22 17 12 10 10 10 11 11 12 12 12 13 12 12 13 14 15 16 16 15 13 15
11 8 5 2 1 3 5 5 4 6 7 10 11 12 16 15 18 18 19 19 20 10 8 7 6 6 8 10 11 12 13 13 13 12 12 12 13 13 13 13 14 14 14
10 8 5 3 3 3 4 7 10 7 6 6 9 9 12 16 19 18 15 17 9 8 3 2 3 4 6 7 8 9 11 11 9 11 12 13 12 10 14 13 10 12 12
10 8 6 6 5 4 4 6 7 9 11 14 7 13 15 17 13 11 13 6 6 4 2 1 0 2 4 5 7 8 8 9 10 11 11 12 11 11 12 11 11 9 7
11 9 8 7 5 4 4 4 5 8 12 13 13 15 13 16 12 11 9 5 2 1 1 2 2 2 2 3 4 5 6 7 7 8 8 9 10 10 10 9 9 9 6
13 11 9 8 7 6 5 4 5 8 11 13 16 16 13 15 16 12 8 6 4 2 2 2 1 1 3 4 4 5 5 6 7 8 8 8 8 8 8 8 8 9 9
14 12 11 10 9 8 6 5 6 9 13 13 16 15 10 14 12 10 9 7 6 6 6 6 6 6 4 3 3 4 6 6 7 7 7 8 8 8 7 6 6 6 6
16 14 14 12 10 8 6 7 8 11 11 14 14 14 9 11 10 8 7 6 6 6 6 8 9 10 10 9 6 5 4 5 6 6 6 7 7 7 7 7 6 6 5
18 17 15 13 11 8 8 8 9 10 11 12 12 13 12 11 10 9 8 8 7 8 8 9 10 11 11 10 9 7 6 6 6 7 7 7 7 8 8 8 8 7 6
19 17 16 13 11 9 9 9 8 9 11 12 13 13 13 13 12 12 11 11 10 10 11 12 11 11 11 10 10 9 8 8 9 9 9 9 9 9 10 9 9 9 8
18 17 15 13 11 10 10 10 11 12 13 14 15 15 15 15 16 15 15 15 16 16 14 12 11 12 12 11 11 11 12 11 12 12 13 13 13 12 13 12 12 11 10
18 16 14 13 12 11 11 11 12 13 15 16 17 18 19 18 19 19 18 18 17 15 14 13 14 15 14 14 14 15 16 16 15 15 16 17 17 17 16 17 15 15 14
Wind_Direction
121 120 118 113 108 101 92 83 66 50 37 27 20 13 7 2 359 355 351 348 343 338 338 336 331 332 326 320 318 310 299 290 285 293 297 304 304 307 306 303 302 300 298
126 122 116 112 105 94 82 68 55 42 32 23 16 7 2 357 353 351 348 344 338 335 333 331 328 328 324 322 320 309 299 296 289 290 297 302 301 305 301 302 302 301 300
127 122 116 108 97 82 67 54 39 33 26 16 7 1 354 350 346 344 341 335 331 330 330 328 326 327 324 324 321 311 304 301 296 291 294 301 302 304 303 303 303 306 304
128 122 112 102 90 77 63 47 31 22 13 6 0 355 350 346 345 343 338 332 329 327 327 328 328 327 324 322 317 312 309 306 302 294 292 299 302 304 303 302 304 304 301
134 124 110 101 89 70 52 35 22 13 6 358 351 347 345 344 346 339 335 330 327 324 324 329 330 328 325 325 321 318 315 309 307 300 297 299 298 304 304 304 302 307 305
136 122 115 106 82 53 37 22 9 2 356 351 349 347 345 346 345 343 334 330 329 326 324 327 329 330 329 326 321 315 311 307 304 301 297 297 299 304 305 307 307 305 307
140 131 121 98 69 45 24 7 359 356 350 348 349 349 346 347 350 343 341 335 331 330 329 330 331 329 329 326 323 321 319 312 305 304 301 303 304 309 308 306 305 303 303
144 133 117 96 66 31 9 3 356 353 353 351 351 352 347 349 348 343 342 339 335 332 331 332 329 328 330 329 323 325 323 322 317 311 300 299 301 306 313 320 316 308 304
148 140 127 103 53 17 3 0 359 354 353 352 353 352 352 350 354 345 343 337 332 330 328 331 330 328 329 327 325 321 323 326 338 337 324 318 325 331 334 333 334 324 325
152 146 136 105 27 8 3 360 357 350 349 351 350 356 359 353 356 346 340 332 325 321 318 329 329 333 330 331 327 329 321 333 344 345 349 352 350 354 1 4 0 342 336
157 155 154 110 9 358 6 358 353 352 351 354 352 357 359 356 344 339 336 328 324 320 324 324 324 335 333 332 337 336 340 339 347 352 357 11 13 10 14 15 16 18 12
166 160 152 198 358 345 355 353 357 352 351 353 352 352 358 353 352 349 337 331 325 324 322 320 325 331 329 336 345 346 343 352 360 6 7 10 8 8 11 15 19 29 35
166 163 176 196 350 343 351 353 359 358 355 350 347 341 340 344 348 349 345 342 328 325 317 318 324 336 343 354 4 2 9 16 12 14 17 17 13 9 9 10 14 31 37
173 176 185 185 177 3 358 352 356 355 341 338 335 329 327 330 339 346 344 338 326 332 323 322 331 338 354 4 12 15 20 20 21 20 18 13 15 20 22 17 18 21 32
181 179 186 193 358 2 357 355 351 344 322 323 316 319 319 318 330 328 324 325 322 320 314 314 323 344 358 2 4 10 18 22 24 24 28 23 21 21 25 21 28 38 54
184 182 192 202 311 333 323 321 343 349 334 316 313 309 317 315 315 318 318 319 323 320 302 317 343 3 14 9 11 13 21 21 19 17 23 21 17 17 21 31 30 37 44
196 194 204 223 238 249 298 333 338 344 354 2 335 326 322 316 322 321 317 319 302 312 305 340 7 24 20 12 15 19 21 24 26 32 31 29 25 36 35 35 37 34 38
204 208 212 219 229 268 310 319 331 339 341 340 343 331 323 330 334 327 330 316 268 278 252 225 58 46 35 25 19 16 21 27 32 33 35 34 33 30 33 30 30 26 27
209 212 214 218 236 260 273 291 318 331 326 320 317 312 328 338 336 332 331 331 314 299 259 218 173 131 80 33 18 15 8 17 19 19 24 25 26 23 31 30 22 25 27
206 210 214 218 224 233 246 273 313 313 313 314 309 316 326 329 338 344 346 342 336 332 319 305 318 49 64 47 13 360 354 358 6 9 15 22 22 18 23 22 20 23 30
205 210 214 219 223 229 235 257 280 289 295 292 299 306 315 302 318 326 331 334 336 333 330 334 343 341 337 352 355 345 344 349 354 360 3 11 11 12 13 4 8 13 13
207 211 214 218 223 226 232 252 269 279 280 289 293 297 297 289 300 300 297 300 307 309 317 323 323 321 322 324 327 329 333 341 345 346 355 2 359 357 357 359 356 356 356
206 209 212 216 220 223 237 257 268 270 280 287 287 288 293 292 288 285 284 286 287 294 303 307 304 304 306 307 309 312 317 321 322 327 336 339 339 342 344 347 343 342 345
209 212 214 215 217 228 243 260 262 272 281 284 288 288 287 288 286 282 281 282 284 288 289 290 289 291 292 290 293 298 302 304 306 309 312 314 314 316 320 321 319 318 320
210 212 215 219 224 234 246 255 265 272 275 280 285 286 285 284 284 284 286 287 286 282 280 282 284 280 280 282 284 287 289 290 293 295 297 297 298 297 299 299 299 298 298
211 214 218 222 231 239 250 261 267 271 273 279 282 284 286 287 288 289 290 288 285 281 279 274 274 277 279 281 285 286 287 287 286 284 286 286 286 285 286 287 287 285 285